Location: Piolenc
(44.1794°N, 4.7641°E)
Time: 03:44:58
(UTC+00:00)

SL-4 R/B - Pass Details

Date: 27 January 2021
Orbit: 427 x 664 km, 51.6° (Epoch: 27 February)

Event Time Altitude Azimuth Distance (km) Brightness Sun altitude
Exits shadow 06:30:53 - 289° (WNW) 1,864 4.0 -6.3°
Reaches altitude 10° 06:31:20 10° 293° (WNW) 1,712 3.8 -6.2°
Maximum altitude 06:34:45 29° 354° (N) 994 3.1 -5.7°
Drops below altitude 10° 06:38:26 10° 56° (NE) 1,844 5.2 -5.0°
Sets 06:41:00 0° 67° (ENE) 2,789 6.4 -4.6°
